Theta_e
288 288 289 289 287 287 286 284 284 280 280 280 281 286 288 287 287 288 284 292 294 296 296 296 296 296 296 297 296 296 296 296 295 295 295 295 296 296
286 285 287 287 287 287 288 285 284 288 284 283 282 283 288 288 287 286 283 288 291 294 294 295 295 295 296 296 295 296 296 295 294 294 293 293 294 294
285 284 285 285 287 288 284 285 286 283 287 284 281 282 285 286 284 284 283 283 285 291 293 294 294 294 295 295 294 294 295 294 293 293 292 292 293 293
285 284 285 286 284 286 287 286 286 284 286 286 280 281 283 286 284 283 282 282 282 288 292 293 293 293 293 294 293 293 293 292 292 291 291 292 291 291
285 285 285 285 284 285 284 286 287 286 284 284 281 280 281 284 280 281 281 280 281 285 290 291 292 292 292 293 292 292 291 291 290 290 290 291 290 290
283 284 285 285 285 285 285 285 286 286 284 283 279 279 279 280 283 280 278 279 279 281 285 287 289 291 292 293 292 291 290 290 290 289 289 289 289 289
283 283 284 285 286 287 285 285 285 285 285 284 283 277 277 279 280 280 280 280 279 280 279 281 284 285 287 291 290 290 290 290 289 289 289 289 288 288
281 283 283 283 285 288 289 290 288 285 284 285 284 282 281 282 282 280 280 277 275 279 278 278 282 281 283 284 289 290 290 289 288 288 288 288 288 288
280 281 282 283 283 284 286 289 289 290 291 286 285 285 283 283 282 281 280 280 280 278 280 278 279 279 280 282 288 289 289 288 288 288 288 288 287 287
278 279 280 281 282 283 283 283 284 285 287 287 287 286 287 284 283 284 282 282 280 279 281 277 278 277 280 280 287 288 289 288 288 288 288 288 287 286
276 276 277 278 282 284 282 281 282 283 287 289 290 291 291 291 285 283 281 279 277 277 279 278 278 279 279 279 281 288 288 288 288 288 287 287 286 285
273 275 277 277 280 282 281 281 280 281 282 283 285 288 289 289 289 283 283 279 280 276 279 277 277 276 275 278 279 282 284 288 287 288 287 286 285 280
271 272 274 278 280 281 283 282 282 283 284 283 283 284 285 285 286 285 283 282 281 280 279 280 277 276 276 274 277 279 281 282 283 285 286 285 284 281
268 270 272 276 278 281 281 284 286 286 284 282 282 282 282 283 285 285 283 283 284 284 279 282 278 278 274 272 273 277 278 280 280 279 278 282 282 283
269 270 273 274 276 279 281 283 283 283 283 282 281 281 282 283 284 284 283 283 283 283 280 281 279 278 278 273 272 274 274 276 278 276 276 276 276 277
269 268 269 272 274 276 276 281 282 282 282 283 282 281 282 282 281 281 279 278 278 277 278 281 279 278 277 275 274 273 275 273 276 276 276 276 277 277
268 266 266 268 270 271 272 278 279 280 280 283 282 281 280 279 279 280 279 276 276 273 272 274 276 276 275 274 272 274 273 273 275 274 274 273 274 276
270 268 267 267 268 269 271 274 275 276 279 281 282 281 279 277 278 278 278 275 275 273 272 272 272 271 271 272 274 272 272 272 273 273 273 271 271 274
269 267 266 267 268 269 270 272 275 278 279 281 280 280 278 277 277 276 275 274 274 271 271 272 271 270 266 266 269 275 271 271 272 271 272 271 269 272
268 267 266 267 268 268 270 272 275 278 278 280 280 279 277 277 276 274 274 273 273 271 270 270 270 270 270 269 267 271 275 271 271 270 270 270 271 273
268 268 267 267 269 270 270 272 275 275 277 278 277 278 277 275 274 274 273 273 272 270 268 268 270 273 270 270 267 268 272 275 273 270 270 268 267 267
264 264 267 271 271 272 272 275 276 276 276 277 277 275 275 275 273 272 272 271 271 270 269 270 271 269 269 268 266 266 267 270 273 273 273 271 267 264
263 264 267 272 275 274 275 276 276 275 275 274 274 273 273 272 272 272 271 271 270 269 268 267 268 269 268 267 266 266 266 266 267 266 267 270 270 271
Wind_Speed
8 9 9 7 5 6 4 5 6 6 8 6 6 11 10 8 12 11 10 17 20 21 20 19 18 17 15 13 11 9 7 5 4 3 3 3 3 3
6 7 9 6 7 6 8 5 4 11 11 7 10 7 12 10 12 12 11 17 22 22 21 19 18 17 17 15 14 12 10 8 6 4 2 2 1 2
7 7 10 7 9 8 5 5 9 5 14 6 4 5 11 12 10 11 11 11 10 22 22 20 19 18 17 17 16 15 13 11 9 6 5 3 2 0
10 9 10 7 9 10 8 11 10 7 10 15 6 6 8 15 13 13 11 9 9 19 23 22 22 20 20 18 17 16 15 13 11 9 8 6 4 2
10 10 12 9 11 9 9 11 10 8 8 8 7 2 4 7 5 7 10 8 7 16 22 23 23 22 21 20 19 18 16 14 13 12 12 10 7 5
10 11 11 11 13 12 10 12 11 10 8 9 5 4 4 4 8 10 7 7 10 9 16 15 19 22 22 23 22 20 19 17 16 15 13 11 10 7
12 11 12 14 18 17 10 11 10 11 11 11 11 4 5 5 15 8 11 9 9 9 8 7 9 10 12 21 15 19 20 18 19 18 16 13 12 9
16 14 12 14 17 24 25 27 20 13 15 13 13 15 17 11 11 11 10 7 7 9 11 11 9 10 9 10 20 22 23 20 20 19 18 17 14 12
17 16 15 12 14 13 19 25 27 30 29 18 19 20 14 13 12 15 16 14 11 7 16 13 10 12 10 10 23 24 24 23 22 21 19 18 16 13
18 18 19 19 17 15 14 16 17 17 21 16 21 20 16 10 16 17 17 16 1 3 14 10 8 12 9 9 25 26 25 25 23 21 19 19 17 15
19 20 20 21 26 30 19 18 17 18 20 29 31 30 26 23 19 10 12 11 9 5 12 5 7 8 9 8 11 28 27 26 23 22 20 18 16 15
19 20 29 29 35 34 22 18 19 20 15 15 18 25 27 21 25 20 15 15 13 7 9 10 7 6 4 4 9 10 13 25 25 23 23 19 17 4
15 15 15 30 34 35 34 20 22 18 18 15 14 13 14 16 12 16 18 16 15 14 9 13 8 7 2 4 6 10 11 11 12 16 23 22 18 12
18 15 17 33 36 36 31 32 32 28 15 12 13 13 13 13 14 14 17 15 14 15 12 19 7 12 9 5 6 9 9 9 9 9 8 14 17 17
15 23 37 38 39 33 37 37 30 15 14 14 14 13 13 12 12 10 12 16 16 12 10 18 9 13 11 5 7 11 14 10 10 10 9 9 7 6
25 19 22 27 32 30 23 22 15 13 12 12 12 12 10 10 10 8 8 8 10 6 6 13 9 10 10 3 6 11 9 10 12 9 8 6 6 6
18 14 13 12 12 12 14 11 9 11 13 13 11 10 10 9 10 9 9 8 10 8 5 4 6 5 5 3 4 10 10 5 10 11 9 7 6 6
15 13 13 12 12 12 12 12 9 12 13 14 10 11 10 11 11 9 10 11 11 9 9 7 8 6 2 3 2 6 6 6 8 9 8 5 4 5
11 11 12 12 10 11 11 12 10 9 12 10 10 10 11 11 13 11 10 10 9 9 9 9 11 10 9 8 2 9 6 5 7 6 6 4 4 5
11 12 11 11 9 11 11 11 12 8 9 10 9 10 11 12 10 12 12 13 12 9 9 8 10 11 10 8 5 4 13 8 7 6 6 3 3 6
12 11 11 11 11 11 12 12 12 8 8 8 7 9 10 10 11 11 12 16 14 10 10 11 10 12 7 6 4 3 7 11 7 7 7 5 3 1
12 12 13 11 11 10 11 12 11 9 8 9 7 8 9 10 11 11 11 11 11 10 8 7 11 10 7 5 7 7 5 5 6 7 6 5 4 3
13 13 12 8 9 7 9 8 7 6 6 5 6 6 8 8 8 9 9 10 9 9 11 9 8 6 5 7 10 7 7 8 4 4 2 5 6 10
Wind_Direction
240 235 234 240 231 225 198 182 187 223 226 224 205 204 201 186 193 188 183 198 210 214 212 207 202 201 199 198 197 197 198 195 185 163 141 125 111 90
258 245 246 238 234 224 235 219 213 239 254 192 215 195 195 192 192 187 191 190 207 213 216 213 210 205 201 199 197 197 195 190 187 184 171 150 134 93
274 253 256 238 250 245 220 221 233 202 248 245 219 206 193 192 188 193 186 195 203 212 210 212 215 215 211 206 200 197 195 191 190 188 189 188 191 336
282 275 263 260 251 249 243 241 236 211 227 244 197 200 195 200 192 188 195 200 198 208 211 209 209 213 216 213 208 202 197 195 191 188 192 193 188 192
277 267 273 262 259 254 241 247 243 237 226 226 221 185 208 191 165 195 191 191 202 205 213 215 212 212 215 216 211 205 200 198 198 193 191 188 188 195
274 272 268 255 260 258 246 245 247 240 228 229 210 181 187 186 194 191 191 196 202 204 214 211 212 214 215 216 214 209 202 198 199 197 196 189 190 190
270 260 262 259 255 254 261 254 243 241 239 235 237 195 190 167 196 183 204 194 211 202 205 210 203 204 216 219 217 209 210 206 197 194 193 191 190 190
276 270 262 258 255 253 249 251 245 241 239 238 241 229 222 208 191 190 184 182 208 193 196 214 200 206 209 213 207 205 207 210 204 196 191 189 189 188
276 275 273 262 254 250 251 250 247 245 245 241 240 238 234 209 184 193 198 200 210 163 188 214 189 213 201 214 208 206 207 203 201 198 193 191 187 186
279 277 270 268 262 255 250 242 239 235 237 239 245 247 240 205 204 203 199 205 4 159 188 202 172 208 199 195 206 207 205 200 196 197 198 193 189 185
280 274 272 273 269 264 258 250 245 240 236 234 235 249 252 242 200 190 204 191 204 197 200 156 183 179 189 192 193 200 201 197 198 197 197 195 194 192
282 277 273 269 269 264 258 253 249 243 231 230 234 238 236 240 227 205 194 206 212 205 200 186 154 147 177 197 187 198 196 198 197 196 194 195 195 171
276 273 268 268 270 268 261 248 245 251 243 233 231 230 228 226 223 217 215 206 208 220 183 179 169 172 138 144 176 188 185 189 192 190 194 194 191 180
287 286 283 283 279 273 267 259 256 251 242 226 231 227 225 221 220 215 217 222 229 227 169 196 179 181 165 149 169 179 191 188 177 173 176 189 192 188
276 277 281 282 283 278 273 263 255 248 240 233 224 227 223 225 222 211 207 222 235 235 179 197 205 191 191 161 157 174 163 188 182 177 178 187 179 175
268 270 267 270 265 273 284 259 241 239 239 233 226 222 217 213 207 191 191 190 206 209 193 188 202 200 197 161 161 163 171 168 175 179 176 180 175 172
251 248 252 257 261 271 284 266 235 230 236 242 223 211 205 198 198 185 186 178 194 177 162 131 117 71 15 170 154 171 162 139 170 164 148 173 172 177
272 269 270 261 262 272 271 274 247 241 241 236 223 206 198 191 193 189 183 187 190 176 172 159 138 125 76 335 308 154 149 139 156 148 152 153 154 178
271 266 263 264 259 252 265 267 262 245 234 233 214 208 194 193 188 186 183 178 182 173 175 172 175 176 175 190 158 199 145 140 141 154 158 127 146 166
272 260 258 255 256 254 249 255 263 245 228 226 216 196 192 191 187 184 183 180 179 171 174 179 182 188 190 188 149 162 172 147 150 151 147 128 196 228
294 268 250 247 244 238 234 245 246 232 218 220 202 197 190 181 185 184 182 184 177 171 176 184 181 168 122 113 99 107 154 157 131 143 147 157 162 202
313 302 279 252 248 242 229 240 232 230 225 217 202 184 180 180 182 174 176 173 175 172 167 155 150 148 144 147 144 137 128 115 150 158 158 171 157 194
323 326 341 320 288 228 229 232 228 214 206 190 171 168 165 163 163 166 167 166 157 150 146 146 148 153 133 137 134 135 128 128 129 151 205 240 265 281